Regional Weather Roundup
Issued by NWS

Home | Current Version | Previous Version | Text Only | Print | Product List | Glossary Off
Versions: 1 2 3 4 5 6 7 8 9 10 11 12 13 14 15 16 17 18 19 20 21 22 23 24 25 26 27 28 29 30 31 32 33 34 35 36 37 38 39 40 41 42 43 44 45 46 47 48 49 50

000
ASUS45 KABQ 290901
RWRNM
NEW MEXICO REGIONAL WEATHER ROUNDUP
NATIONAL WEATHER SERVICE ALBUQUERQUE NM
300 AM MDT THU SEP 29 2016

NOTE: "FAIR" MEANS FEW OR NO CLOUDS BELOW 12,000 FEET AGL WITH NO
       SIGNIFICANT WEATHER OR OBSTRUCTIONS TO VISION.

      THIS PRODUCT IS RELEASED AS TWO VERSIONS.  ONE VERSION NEAR
      THE TOP OF THE HOUR CONTAINING PRELIMINARY DATA FROM ALBUQUERQUE
      AND OTHER STATIONS.  A FINAL VERSION WITH ADDITIONAL DATA IS
      ISSUED ABOUT 10 MINUTES AFTER THE HOUR.

NMZ501-503-504-510>518-291000-
NORTHWEST PLATEAU/NORTHCENTRAL MOUNTAINS

CITY           SKY/WX    TMP DP  RH WIND       PRES   REMARKS
FARMINGTON     CLOUDY    61  50  67 E10       30.34F
LOS ALAMOS     FAIR      60  29  31 SW7       30.49S
SANTA FE       FAIR      57  33  40 CALM      30.43R
TAOS           FAIR      54  25  32 E12       30.49S

$$
NMZ402-403-502-505>509-291000-
WESTCENTRAL MOUNTAINS/SOUTHWEST MOUNTAINS

CITY           SKY/WX    TMP DP  RH WIND       PRES   REMARKS
GALLUP         CLOUDY    54  51  90 CALM      30.39S
SILVER CITY    FAIR      62  49  63 NE6       30.32S

$$
NMZ407-409-411-412-291000-
SOUTHERN DESERTS

CITY           SKY/WX    TMP DP  RH WIND       PRES   REMARKS
DEMING         FAIR      66  52  60 E8        30.26S
LAS CRUCES     FAIR      66  55  66 E5        30.28S
ALAMOGORDO     FAIR      66  48  52 NW8       30.28S
T OR C         FAIR      66  50  56 CALM      30.29S

$$
NMZ519>523-291000-
CENTRAL VALLEYS/CENTRAL HIGHLANDS

CITY           SKY/WX    TMP DP  RH WIND       PRES   REMARKS
ALBUQUERQUE    CLOUDY    69  32  25 CALM      30.35R
DOUBLE EAGLE   FAIR      61  35  37 CALM      30.39R
CLINES CORNERS FAIR      55  35  47 E5        30.48R
BELEN          FAIR      70  31  23 SE10      30.34R
SOCORRO        FAIR      66  46  49 SW6       30.32R

$$
NMZ524>526-539-540-291000-
SOUTHCENTRAL MOUNTAINS

CITY           SKY/WX    TMP DP  RH WIND       PRES   REMARKS
RUIDOSO        FAIR      55  39  54 S3        30.47S

$$
NMZ527>531-291000-
NORTHEAST HIGHLANDS/NORTHEAST PLAINS

CITY           SKY/WX    TMP DP  RH WIND       PRES   REMARKS
LAS VEGAS      FAIR      47  32  56 NE3       30.48S
RATON          FAIR      44  32  62 NE10      30.45S
CLAYTON        FAIR      54  46  74 S5        30.40S

$$
NMZ532>537-291000-
EASTCENTRAL PLAINS

CITY           SKY/WX    TMP DP  RH WIND       PRES   REMARKS
TUCUMCARI      FAIR      58  40  51 NE6       30.33R
CANNON AFB     NOT AVBL
CLOVIS AIRPORT FAIR      55  45  67 E7        30.35S

$$
NMZ028-029-538-291000-
SOUTHEAST PLAINS

CITY           SKY/WX    TMP DP  RH WIND       PRES   REMARKS
ROSWELL        FAIR      61  50  67 N5        30.29R
ARTESIA        FAIR      59  57  94 NW3       30.28S
CARLSBAD       FAIR      57  55  93 NW3       30.26R
HOBBS            N/A     54  50  87 N6        30.30S


$$




USA.gov is the U.S. government's official web portal to all federal, state and local government web resources and services.